This demonstration page uses our WeatherBlox Daily Observations layout. Learn more.

Hourly Observations for June 3, 2020

Temp ( °F °C ) Dew Point ( °F °C ) Humidity (%) Winds ( mph kmh ) Pressure ( in mb ) Visibility ( mi km ) Precip ( " mm )
12:15 am 00:15 Cloudy with Light Thunderstorms 69 20.7 65 18.3 86 86 N 6 9 29.95 1014 10 16.0934 0 0
12:35 am 00:35 Cloudy 71 21.6 65 18.4 82 82 N 17 28 29.91 1013 10 16.0934 0.02 0.508
12:55 am 00:55 Cloudy with Light Rain 72 22.2 64 17.6 75 75 N 20 31 29.9 1012 10 16.0934 0.03 0.762
1:15 am 01:15 Partly Cloudy with Light Rain 71 21.5 65 18.2 82 82 N 15 24 29.9 1013 10 16.0934 0 0
1:35 am 01:35 Mostly Cloudy 73 23 63 17.4 71 71 N 10 17 29.89 1012 10 16.0934 0 0
1:55 am 01:55 Partly Cloudy 71 21.8 64 17.8 78 78 N 7 11 29.9 1013 10 16.0934 0 0
2:15 am 02:15 Clear 70 21.2 65 18.1 83 83 N 8 13 29.9 1012 10 16.0934 0 0
2:35 am 02:35 Clear 69 20.7 65 18.2 86 86 N 10 17 29.88 1012 10 16.0934 0 0
2:55 am 02:55 Clear 70 21 64 17.9 83 83 N 13 20 29.87 1011 10 16.0934 0 0
3:15 am 03:15 Clear 69 20.8 63 17.1 79 79 N 13 20 29.86 1011 10 16.0934 0 0
3:35 am 03:35 Clear 69 20.8 61 16 74 74 NNE 15 24 29.84 1011 10 16.0934 0 0
3:55 am 03:55 Clear 69 20.5 61 16 76 76 N 15 24 29.84 1011 10 16.0934 0 0
4:15 am 04:15 Clear 69 20.3 60 15.5 74 74 N 16 26 29.82 1010 10 16.0934 0 0
4:35 am 04:35 Clear 68 20.1 59 15.1 73 73 N 15 24 29.85 1011 10 16.0934 0 0
4:55 am 04:55 Clear 67 19.5 58 14.6 73 73 NNE 13 20 29.86 1011 10 16.0934 0 0
5:15 am 05:15 Clear 66 19 58 14.5 75 75 NNE 12 19 29.87 1011 10 16.0934 0 0
5:35 am 05:35 Clear 65 18.5 58 14.3 77 77 NNE 10 17 29.89 1012 10 16.0934 0 0
5:55 am 05:55 Clear 65 18.2 58 14.2 78 78 NE 7 11 29.9 1013 10 16.0934 0 0
6:15 am 06:15 Sunny 64 18 58 14.2 79 79 SSW 7 11 29.91 1013 10 16.0934 0 0
6:35 am 06:35 Sunny 64 17.7 58 14.5 82 82 SSW 5 7 29.92 1013 10 16.0934 0 0
6:55 am 06:55 Sunny 65 18.3 58 14.6 79 79 Calm 29.92 1013 10 16.0934 0 0
7:15 am 07:15 Sunny 66 19 59 15.2 79 79 Calm 29.91 1013 10 16.0934 0 0
7:35 am 07:35 Sunny 67 19.7 60 15.5 77 77 NW 3 6 29.92 1013 10 16.0934 0 0
7:55 am 07:55 Sunny 69 20.5 60 15.6 74 74 NW 3 6 29.92 1013 10 16.0934 0 0
8:15 am 08:15 Sunny 71 21.4 60 15.6 70 70 NW 3 6 29.92 1013 10 16.0934 0 0
8:35 am 08:35 Sunny 71 21.7 60 15.8 69 69 NW 7 11 29.92 1013 10 16.0934 0 0
8:55 am 08:55 Sunny 72 22 59 14.9 64 64 N 7 11 29.91 1013 10 16.0934 0 0
9:15 am 09:15 Sunny 73 22.7 59 14.8 61 61 NE 5 7 29.9 1012 10 16.0934 0 0
9:35 am 09:35 Sunny 73 23 58 14.5 59 59 NE 10 17 29.89 1012 10 16.0934 0 0
9:55 am 09:55 Sunny 74 23.4 59 14.9 59 59 NNE 5 7 29.89 1012 10 16.0934 0 0
10:15 am 10:15 Sunny 75 24 58 14.6 56 56 ENE 9 15 29.88 1012 10 16.0934 0 0
10:35 am 10:35 Sunny 76 24.3 58 14.5 54 54 ENE 7 11 29.88 1012 10 16.0934 0 0
10:55 am 10:55 Sunny 77 25.1 58 14.6 52 52 NE 7 11 29.88 1012 10 16.0934 0 0
11:15 am 11:15 Sunny 79 26 57 13.7 47 47 E 7 11 29.87 1011 10 16.0934 0 0
11:35 am 11:35 Sunny 80 26.4 57 13.7 46 46 ENE 7 11 29.85 1011 10 16.0934 0 0
11:55 am 11:55 Sunny 82 27.6 55 12.7 40 40 ESE 10 17 29.83 1010 10 16.0934 0 0
12:15 pm 12:15 Sunny 83 28.2 56 13.3 40 40 ESE 10 17 29.82 1010 10 16.0934 0 0
12:35 pm 12:35 Sunny 83 28.2 55 13 39 39 SE 12 19 29.81 1010 10 16.0934 0 0
12:55 pm 12:55 Sunny 83 28.3 57 13.9 41 41 ESE 8 13 29.8 1009 10 16.0934 0 0
1:15 pm 13:15 Sunny 84 29 59 15.2 43 43 SE 10 17 29.79 1009 10 16.0934 0 0
1:35 pm 13:35 Sunny 85 29.4 58 14.7 41 41 SE 8 13 29.78 1009 10 16.0934 0 0
1:55 pm 13:55 Sunny 85 29.6 58 14.2 39 39 SSE 6 9 29.77 1008 10 16.0934 0 0
2:15 pm 14:15 Sunny 85 29.7 58 14.2 39 39 SE 10 17 29.76 1008 10 16.0934 0 0
2:35 pm 14:35 Sunny 86 30.1 58 14.3 38 38 SSE 7 11 29.75 1007 10 16.0934 0 0
2:55 pm 14:55 Sunny 87 30.7 58 14.3 37 37 SE 7 11 29.73 1007 10 16.0934 0 0
3:15 pm 15:15 Sunny 88 30.9 58 14.6 37 37 SSE 7 11 29.72 1006 10 16.0934 0 0
3:35 pm 15:35 Sunny 88 31.2 59 14.9 37 37 SSW 10 17 29.72 1006 10 16.0934 0 0
3:55 pm 15:55 Sunny 88 31.3 58 14.4 36 36 S 8 13 29.7 1006 10 16.0934 0 0
4:15 pm 16:15 Sunny 89 31.5 59 14.8 36 36 SSW 8 13 29.69 1005 10 16.0934 0 0
4:35 pm 16:35 Sunny 89 31.5 59 15.2 37 37 S 8 13 29.69 1005 10 16.0934 0 0
4:55 pm 16:55 Sunny 89 31.8 59 14.8 36 36 SSW 8 13 29.67 1005 10 16.0934 0 0
5:15 pm 17:15 Sunny 89 31.6 58 14.6 36 36 SW 7 11 29.67 1005 10 16.0934 0 0
5:35 pm 17:35 Sunny 89 31.6 57 14 34 34 SW 6 9 29.67 1005 10 16.0934 0 0
5:55 pm 17:55 Sunny 89 31.6 57 13.8 34 34 SSW 9 15 29.66 1004 10 16.0934 0 0
6:15 pm 18:15 Sunny 89 31.8 57 13.9 34 34 S 12 19 29.64 1004 10 16.0934 0 0
6:35 pm 18:35 Sunny 87 30.4 57 14 37 37 SSW 6 9 29.65 1004 10 16.0934 0 0
6:55 pm 18:55 Sunny 87 30.6 58 14.3 37 37 S 8 13 29.65 1004 10 16.0934 0 0
7:15 pm 19:15 Sunny 87 30.5 58 14.5 38 38 S 5 7 29.64 1004 10 16.0934 0 0
7:35 pm 19:35 Sunny 85 29.7 60 15.5 42 42 Calm 29.65 1004 10 16.0934 0 0
7:55 pm 19:55 Sunny 85 29.7 60 15.4 42 42 S 3 6 29.67 1005 10 16.0934 0 0
8:15 pm 20:15 Sunny with Nearby Thunderstorms 84 29 60 15.6 44 44 S 8 13 29.67 1005 10 16.0934 0 0
8:35 pm 20:35 Sunny 83 28.4 61 16 47 47 SSW 9 15 29.68 1005 10 16.0934 0 0
8:55 pm 20:55 Mostly Cloudy with Nearby Thunderstorms 81 27.4 61 16.2 50 50 SW 15 24 29.72 1006 10 16.0934 0 0
9:15 pm 21:15 Windy with Storms Likely 72 22.3 57 14.1 60 60 WSW 20 31 29.75 1007 10 16.0934 0 0
9:35 pm 21:35 Mostly Cloudy 74 23.4 56 13.3 53 53 W 14 22 29.78 1008 10 16.0934 0 0
9:55 pm 21:55 Partly Cloudy 77 25.1 53 11.9 44 44 SSE 5 7 29.7 1006 10 16.0934 0 0
10:15 pm 22:15 Partly Cloudy with Nearby Thunderstorms 72 22 59 15 65 65 NE 18 30 29.8 1009 10 16.0934 0 0
10:35 pm 22:35 Partly Cloudy 69 20.3 61 15.9 76 76 NNE 12 19 29.82 1010 10 16.0934 0 0
10:55 pm 22:55 Clear 67 19.3 61 15.9 81 81 ENE 10 17 29.79 1009 10 16.0934 0 0
11:15 pm 23:15 Clear 65 18.5 61 16.2 87 87 ENE 5 7 29.79 1009 10 16.0934 0 0
11:35 pm 23:35 Clear 65 18.5 61 16 85 85 Calm 29.77 1008 10 16.0934 0 0
11:55 pm 23:55 Clear 64 17.5 61 15.9 90 90 N 3 6 29.78 1008 10 16.0934 0 0

Powered by AerisWeather